Weather in Snezhnyy

Russia / Khabarovsk Krai     50°15′59″N   137°56′50″E
temp.,
°C
wind,
m/s
gust,
m/s
humid.,
%
clouds,
%
prec.,
mm/h
press.,
hPa
HPBL,
m
27 february, sat
sat2701:00−20s229999 0.1 103163
04:00−21s229899 0.1 103256
07:00−21sse2298100 0.1 103343
10:00−17ssw4891100 0.1 1032529
13:00−14ssw4887100 0.1 1029643
16:00−12ssw51087100 0.1 1026725
19:00−14s2594100 0.0 1026129
22:00−14se2292100 0.0 102233
28 february, sun
sun2801:00−12sse2392100 0.3 101877
04:00−11sw51595100 1.7 1014900
07:00−10sw41495100 1.8 1013832
10:00−9sw61492100 2.7 1012826
13:00−6wsw51190100 0.6 1012941
16:00−8wsw5991100 1.1 1011914
19:00−9sw51192100 0.9 1014690
22:00−12wsw4996100 1.9 1016559
1 march, mon
mon101:00−16w3790100 0.5 1018424
04:00−19w3691100 0.6 1021193
07:00−21ssw3899100 0.1 1023319
10:00−20ssw4892100 0.2 1025672
13:00−18sw6989100 0.1 1024807
16:00−17sw61091100 0.4 1024944
19:00−19wsw2498100 0.3 1026213
22:00−20sw2595100 0.6 1027266
2 march, tue
tue201:00−23ssw259898 0.1 1027142
04:00−24s239894 0.3 102979
07:00−26s349798 0.1 103083
10:00−23ssw469069 0.1 1030425
13:00−19sw458355 0.0 1029662
16:00−19sw458460 0.0 1028695
19:00−23ssw239878 0.0 102924
22:00−25s239877 0.0 103022
3 march, wed
wed301:00−24s2399100 0.1 102935
04:00−25s2399100 0.1 102837
07:00−25s2399100 0.1 102838
10:00−19ssw4989100 0.1 1026560
13:00−15ssw51077100 0.1 1022978
16:00−12sw61274100 0.1 10191162
19:00−14sw31089100 0.0 1017454
22:00−15ssw31296100 0.0 1016503